Погода в Канберре

Австралия     35°18′24″S   149°07′31″E
темп.,
°C
ветер,
м/с
пор.,
м/с
влажн.,
%
обл.,
%
осадки,
мм/ч
давл.,
гПа
погр.,
м
23 апреля, пт
пт2301:00+3зсз23900 0.0 101757
04:00+2зюз11930 0.0 101811
07:00+2зюз11951 0.0 101912
10:00+11з34555 0.0 1018639
13:00+17зсз35345 0.0 10151525
16:00+16з55361 0.0 10151276
19:00+8зсз26653 0.0 1019104
22:00+5ююв11795 0.0 102212
24 апреля, сб
сб2401:00+4ююв11830 0.0 102214
04:00+3ю118845 0.0 102211
07:00+3в009029 0.0 102411
10:00+11зсз235665 0.0 1022538
13:00+16сз3537100 0.0 10191375
16:00+16зсз57385 0.0 10191248
19:00+8сз376488 0.0 1022154
22:00+5ююв11800 0.0 102516
25 апреля, вс
вс2501:00+5ю229232 0.0 102520
04:00+5юз119044 0.0 102415
07:00+7з118092 0.0 102535
10:00+14зсз115446 0.0 1024980
13:00+16зсз23435 0.0 10221496
16:00+16ссз33445 0.0 10211051
19:00+9с35675 0.0 102497
22:00+6вюв11870 0.0 102616
26 апреля, пн
пн2601:00+5ююв229628 0.0 102618
04:00+6ю229350 0.0 102683
07:00+5ю119612 0.0 102821
10:00+14ююв01591 0.0 1027615
13:00+18зсз11420 0.0 10241354
16:00+17ссз21421 0.0 10231257
19:00+10в11673 0.0 102613
22:00+7в23941 0.0 102869
27 апреля, вт
вт2701:00+6юв11950 0.0 102815
04:00+6юв11950 0.0 102812
07:00+5ююв11950 0.0 103013
10:00+14ссв12620 0.0 1028615
13:00+18сз22450 0.0 10251369
16:00+18ссз22432 0.0 10241290
19:00+10в48897 0.0 1027250
22:00+10вюв249183 0.0 1027214